This is the latest recevied weather packets stored in our database for station/object KG5TTF. If no packets are shown the sender has not sent any weather packets the latest 10 day(s).
| Time | Temp. | Humidity | Pressure | Rain* | Wind** | Luminosity | Snow |
|---|---|---|---|---|---|---|---|
| 1778006998 | 1.67° C | 99% | 1016.4 hPa | 1.78 mm | - | 219 W/m² | - |
| 1778006695 | 1.67° C | 99% | 1016.5 hPa | 0 mm | - | 206 W/m² | - |
| 1778006391 | 1.67° C | 99% | 1016.6 hPa | 0 mm | - | 220 W/m² | - |
| 1778006088 | 1.67° C | 99% | 1016.6 hPa | 0 mm | - | 218 W/m² | - |
| 1778005785 | 1.67° C | 99% | 1016.5 hPa | 1.27 mm | - | 253 W/m² | - |
| 1778005482 | 1.67° C | 99% | 1016.8 hPa | 1.27 mm | - | 205 W/m² | - |
| 1778005178 | 1.67° C | 99% | 1017 hPa | 0 mm | - | 196 W/m² | - |
| 1778004876 | 1.67° C | 99% | 1017 hPa | 0 mm | - | 198 W/m² | - |
| 1778004572 | 1.67° C | 99% | 1017 hPa | 0 mm | - | 138 W/m² | - |
| 1778004269 | 1.11° C | 99% | 1017 hPa | 0 mm | - | 178 W/m² | - |
| 1778003966 | 1.11° C | 99% | 1017 hPa | 0 mm | - | 173 W/m² | - |
| 1778003662 | 1.11° C | 99% | 1017 hPa | 0 mm | - | 134 W/m² | - |
| 1778003358 | 1.67° C | 99% | 1017.4 hPa | 0 mm | - | 166 W/m² | - |
| 1778003056 | 1.11° C | 99% | 1017.1 hPa | 0 mm | - | 178 W/m² | - |
| 1778002752 | 1.11° C | 99% | 1017.1 hPa | 0 mm | - | 141 W/m² | - |
| 1778002448 | 1.11° C | 99% | 1017.1 hPa | 0 mm | - | 167 W/m² | - |
| 1778002145 | 1.11° C | 99% | 1017.1 hPa | 0 mm | - | 169 W/m² | - |
| 1778001843 | 1.11° C | 99% | 1017.2 hPa | 1.78 mm | - | 138 W/m² | - |
| 1778001543 | 1.11° C | 99% | 1017.4 hPa | 1.78 mm | - | 109 W/m² | - |
| 1778001240 | 1.11° C | 99% | 1017.5 hPa | 0 mm | - | 149 W/m² | - |
| 1778000936 | 1.11° C | 99% | 1017.4 hPa | 0 mm | - | 126 W/m² | - |
| 1778000634 | 1.11° C | 99% | 1017.5 hPa | 0 mm | - | 137 W/m² | - |
| 1778000328 | 1.11° C | 99% | 1017.4 hPa | 0 mm | - | 121 W/m² | - |
| 1778000024 | 1.11° C | 99% | 1017.5 hPa | 1.78 mm | - | 84 W/m² | - |
| 1777999720 | 1.11° C | 99% | 1017.6 hPa | 1.78 mm | - | 86 W/m² | - |
* Rain latest hour (hover to see other rain measurements)
** Current wind speed in m/s (hover to see current wind gust speed)